weather.gov     
National Weather Service

Terminal Aerodrome Forecast
NWS Homepage
This page is being discontinued on March 12, 2014.
The same data is available at this site. Please update your bookmarks.
Thank you, and we apologize for the inconvenience.
Please send an email to SR-SRH.Webmaster@noaa.gov with any concerns.


Current Version
Previous Version:    01  02  03  04  05  06  07  08  09  10  11  12  13  14  15  16  17  18  19  20  21  22  23  24  25  26  27  
[Printable]
309
FTUS43 KFSD 201700 RRA
TAFHON
TAF
KHON 201743Z 2018/2118 15013G20KT P6SM BKN150
     FM202300 14010KT P6SM SCT040 BKN120
      TEMPO 2100/2104 5SM TSRA BKN040CB
     FM210800 VRB04KT 3SM BR BKN010
     FM211500 36005KT P6SM SCT012=


U.S. Dept. of Commerce
NOAA National Weather Service
1325 East West Highway
Silver Spring, MD 20910
E-mail: w-nws.webmaster@noaa.gov
Page last modified: May 16, 2007
NATIONAL WEATHER SERVICE: for Safety, for Work, for Fun - FOR LIFE